Time,TemperatureF,DewpointF,PressureIn,WindDirection,WindDirectionDegrees,WindSpeedMPH,WindSpeedGustMPH,Humidity,HourlyPrecipIn,Conditions,Clouds,dailyrainin,SoftwareType,DateUTC
2013-05-17 10:13:00,71.9,60.6,30.04,SSW,203,0.0,0.0,67,0.00,,,0.00,WUHU215HW,2013-05-17 15:13:00,
2013-05-17 10:14:00,72.1,60.7,30.04,SE,135,1.7,1.7,67,0.00,,,0.00,WUHU215HW,2013-05-17 15:14:00,
2013-05-17 10:16:00,72.2,60.8,30.04,SE,135,1.7,1.7,67,0.00,,,0.00,WUHU215HW,2013-05-17 15:16:00,
2013-05-17 10:17:00,72.1,60.8,30.04,SE,135,1.7,1.7,67,0.00,,,0.00,WUHU215HW,2013-05-17 15:17:00,
2013-05-17 10:19:00,72.3,60.9,30.04,WSW,248,0.0,1.7,67,0.00,,,0.00,WUHU215HW,2013-05-17 15:19:00,
2013-05-17 10:20:00,72.3,60.9,30.04,South,180,0.0,1.7,67,0.00,,,0.00,WUHU215HW,2013-05-17 15:20:00,
2013-05-17 10:23:00,72.6,60.8,30.04,SE,135,0.0,1.7,66,0.00,,,0.00,WUHU215HW,2013-05-17 15:23:00,
2013-05-17 10:24:00,72.5,60.7,30.04,SE,135,0.0,1.7,66,0.00,,,0.00,WUHU215HW,2013-05-17 15:24:00,
2013-05-17 10:27:00,72.6,60.4,30.04,West,270,0.0,0.0,65,0.00,,,0.00,WUHU215HW,2013-05-17 15:27:00,
2013-05-17 10:29:00,72.5,60.3,30.04,SSE,158,0.0,0.0,65,0.00,,,0.00,WUHU215HW,2013-05-17 15:29:00,
2013-05-17 10:30:00,72.5,59.8,30.04,SSW,203,0.0,0.0,64,0.00,,,0.00,WUHU215HW,2013-05-17 15:30:00,
2013-05-17 10:31:00,72.5,59.8,30.04,SSW,203,0.0,0.0,64,0.00,,,0.00,WUHU215HW,2013-05-17 15:31:00,
2013-05-17 10:36:00,73.0,60.3,30.04,South,180,0.0,0.0,64,0.00,,,0.00,WUHU215HW,2013-05-17 15:36:00,
2013-05-17 10:37:00,72.9,60.2,30.04,South,180,0.0,0.0,64,0.00,,,0.00,WUHU215HW,2013-05-17 15:37:00,
2013-05-17 10:41:00,73.0,59.8,30.04,SSW,203,2.2,2.2,63,0.00,,,0.00,WUHU215HW,2013-05-17 15:41:00,
2013-05-17 10:42:00,72.9,59.8,30.04,SSW,203,2.2,2.2,63,0.00,,,0.00,WUHU215HW,2013-05-17 15:42:00,
2013-05-17 10:43:00,73.2,60.1,30.04,SSW,203,2.2,2.2,63,0.00,,,0.00,WUHU215HW,2013-05-17 15:43:00,
2013-05-17 10:44:00,73.2,60.0,30.04,SSW,203,2.2,2.2,63,0.00,,,0.00,WUHU215HW,2013-05-17 15:44:00,
2013-05-17 10:47:00,73.4,60.3,30.04,West,270,12.9,12.9,63,0.00,,,0.00,WUHU215HW,2013-05-17 15:47:00,
2013-05-17 10:48:00,73.4,60.3,30.04,West,270,12.9,12.9,63,0.00,,,0.00,WUHU215HW,2013-05-17 15:48:00,
2013-05-17 10:50:00,73.5,59.9,30.04,West,259,4.8,12.9,62,0.00,,,0.00,WUHU215HW,2013-05-17 15:50:00,
2013-05-17 10:53:00,73.4,59.4,30.04,SE,135,23.7,23.7,61,0.00,,,0.00,WUHU215HW,2013-05-17 15:53:00,
2013-05-17 10:54:00,73.6,59.5,30.04,SE,135,23.7,23.7,61,0.00,,,0.00,WUHU215HW,2013-05-17 15:54:00,
2013-05-17 10:55:00,73.6,59.5,30.04,SE,135,23.7,23.7,61,0.00,,,0.00,WUHU215HW,2013-05-17 15:55:00,
2013-05-17 10:57:00,73.6,59.5,30.04,SE,135,11.9,23.7,61,0.00,,,0.00,WUHU215HW,2013-05-17 15:57:00,
2013-05-17 10:58:00,73.6,59.0,30.04,SE,138,4.5,23.7,60,0.00,,,0.00,WUHU215HW,2013-05-17 15:58:00,
2013-05-17 11:02:00,73.6,59.1,30.04,SSW,196,12.6,23.7,60,0.00,,,0.00,WUHU215HW,2013-05-17 16:02:00,
2013-05-17 11:03:00,73.6,59.1,30.04,West,270,10.7,23.7,60,0.00,,,0.00,WUHU215HW,2013-05-17 16:03:00,
2013-05-17 11:04:00,74.0,59.4,30.04,West,268,7.0,23.7,60,0.00,,,0.00,WUHU215HW,2013-05-17 16:04:00,
2013-05-17 11:07:00,74.1,59.0,30.04,SSE,158,0.8,18.1,59,0.00,,,0.00,WUHU215HW,2013-05-17 16:07:00,
2013-05-17 11:08:00,74.0,59.0,30.04,SSE,158,0.8,18.1,59,0.00,,,0.00,WUHU215HW,2013-05-17 16:08:00,
2013-05-17 11:09:00,74.1,58.6,30.04,SE,135,11.4,18.1,58,0.00,,,0.00,WUHU215HW,2013-05-17 16:09:00,
2013-05-17 11:10:00,74.1,58.6,30.04,SE,135,11.4,18.1,58,0.00,,,0.00,WUHU215HW,2013-05-17 16:10:00,
2013-05-17 11:13:00,74.4,58.4,30.04,SE,134,7.8,11.4,57,0.00,,,0.00,WUHU215HW,2013-05-17 16:13:00,
2013-05-17 11:14:00,74.4,58.3,30.04,SE,130,4.2,11.4,57,0.00,,,0.00,WUHU215HW,2013-05-17 16:14:00,
2013-05-17 11:15:00,74.3,58.3,30.04,SW,225,7.1,11.4,57,0.00,,,0.00,WUHU215HW,2013-05-17 16:15:00,
2013-05-17 11:17:00,74.5,57.9,30.04,SW,225,7.1,11.4,56,0.00,,,0.00,WUHU215HW,2013-05-17 16:17:00,
2013-05-17 11:19:00,74.6,58.1,30.04,South,180,0.0,11.4,56,0.00,,,0.00,WUHU215HW,2013-05-17 16:19:00,
2013-05-17 11:20:00,74.6,58.0,30.04,South,180,0.0,11.4,56,0.00,,,0.00,WUHU215HW,2013-05-17 16:20:00,
2013-05-17 11:21:00,74.9,58.3,30.04,South,180,0.0,11.4,56,0.00,,,0.00,WUHU215HW,2013-05-17 16:21:00,
2013-05-17 11:24:00,75.0,58.4,30.04,ENE,68,4.2,7.1,56,0.00,,,0.00,WUHU215HW,2013-05-17 16:24:00,
2013-05-17 11:25:00,75.0,58.4,30.04,ENE,68,4.2,7.1,56,0.00,,,0.00,WUHU215HW,2013-05-17 16:25:00,
2013-05-17 11:26:00,75.2,58.6,30.04,SSE,158,0.0,7.1,56,0.00,,,0.00,WUHU215HW,2013-05-17 16:26:00,
2013-05-17 11:28:00,75.1,58.5,30.04,SSE,158,14.9,14.9,56,0.00,,,0.00,WUHU215HW,2013-05-17 16:28:00,
2013-05-17 11:29:00,75.1,58.5,30.04,SSE,158,14.9,14.9,56,0.00,,,0.00,WUHU215HW,2013-05-17 16:29:00,
2013-05-17 11:30:00,75.4,58.7,30.04,SSE,158,14.9,14.9,56,0.00,,,0.00,WUHU215HW,2013-05-17 16:30:00,
2013-05-17 11:34:00,75.5,58.3,30.04,West,270,2.2,14.9,55,0.00,,,0.00,WUHU215HW,2013-05-17 16:34:00,
2013-05-17 11:35:00,75.4,58.3,30.04,SE,135,1.5,14.9,55,0.00,,,0.00,WUHU215HW,2013-05-17 16:35:00,
2013-05-17 11:36:00,75.4,58.3,30.04,SE,135,1.5,14.9,55,0.00,,,0.00,WUHU215HW,2013-05-17 16:36:00,
2013-05-17 11:39:00,75.8,58.6,30.04,SE,135,1.5,14.9,55,0.00,,,0.00,WUHU215HW,2013-05-17 16:39:00,
2013-05-17 11:40:00,75.7,58.6,30.04,SE,135,1.5,14.9,55,0.00,,,0.00,WUHU215HW,2013-05-17 16:40:00,
2013-05-17 11:41:00,75.9,58.2,30.04,West,270,16.7,16.7,54,0.00,,,0.00,WUHU215HW,2013-05-17 16:41:00,
2013-05-17 11:42:00,75.9,58.2,30.04,West,270,16.7,16.7,54,0.00,,,0.00,WUHU215HW,2013-05-17 16:42:00,
2013-05-17 11:46:00,75.9,58.2,30.04,SW,231,3.3,16.7,54,0.00,,,0.00,WUHU215HW,2013-05-17 16:46:00,
2013-05-17 11:50:00,76.3,58.5,30.04,SE,146,0.5,16.7,54,0.00,,,0.00,WUHU215HW,2013-05-17 16:50:00,
2013-05-17 11:53:00,76.4,58.7,30.04,ESE,113,12.0,12.3,54,0.00,,,0.00,WUHU215HW,2013-05-17 16:53:00,
2013-05-17 11:55:00,76.4,58.1,30.04,SE,138,4.4,12.0,53,0.00,,,0.00,WUHU215HW,2013-05-17 16:55:00,
2013-05-17 11:56:00,76.4,58.1,30.04,SSW,203,2.9,12.0,53,0.00,,,0.00,WUHU215HW,2013-05-17 16:56:00,
2013-05-17 11:58:00,76.6,58.4,30.04,WSW,248,6.4,12.0,53,0.00,,,0.00,WUHU215HW,2013-05-17 16:58:00,
2013-05-17 12:00:00,76.6,58.3,30.04,WSW,248,6.4,12.0,53,0.00,,,0.00,WUHU215HW,2013-05-17 17:00:00,
2013-05-17 12:02:00,77.2,58.3,30.04,WSW,246,4.4,12.0,52,0.00,,,0.00,WUHU215HW,2013-05-17 17:02:00,
2013-05-17 12:05:00,77.2,58.3,30.04,SSW,203,0.6,6.4,52,0.00,,,0.00,WUHU215HW,2013-05-17 17:05:00,
2013-05-17 12:07:00,77.3,58.5,30.04,SSE,158,6.0,6.4,52,0.00,,,0.00,WUHU215HW,2013-05-17 17:07:00,
2013-05-17 12:09:00,77.6,58.7,30.04,SSE,158,6.0,6.4,52,0.00,,,0.00,WUHU215HW,2013-05-17 17:09:00,
2013-05-17 12:12:00,77.8,58.3,30.04,SSW,203,15.6,15.6,51,0.00,,,0.00,WUHU215HW,2013-05-17 17:12:00,
2013-05-17 12:13:00,77.8,58.3,30.04,SSW,203,10.8,15.6,51,0.00,,,0.00,WUHU215HW,2013-05-17 17:13:00,
2013-05-17 12:15:00,78.3,58.2,30.04,ESE,113,9.1,15.6,50,0.00,,,0.00,WUHU215HW,2013-05-17 17:15:00,
2013-05-17 12:17:00,78.3,58.2,30.04,ESE,113,9.1,15.6,50,0.00,,,0.00,WUHU215HW,2013-05-17 17:17:00,
2013-05-17 12:18:00,78.2,58.2,30.04,ESE,113,9.1,15.6,50,0.00,,,0.00,WUHU215HW,2013-05-17 17:18:00,
2013-05-17 12:21:00,78.8,58.7,30.04,ESE,113,3.8,15.6,50,0.00,,,0.00,WUHU215HW,2013-05-17 17:21:00,
2013-05-17 12:23:00,78.8,58.1,30.04,ESE,113,3.8,9.1,49,0.00,,,0.00,WUHU215HW,2013-05-17 17:23:00,
2013-05-17 12:24:00,79.3,58.6,30.04,ESE,113,2.9,9.1,49,0.00,,,0.00,WUHU215HW,2013-05-17 17:24:00,
2013-05-17 12:26:00,79.7,59.0,30.04,SW,225,18.3,18.3,49,0.00,,,0.00,WUHU215HW,2013-05-17 17:26:00,
2013-05-17 12:27:00,79.7,58.4,30.04,SW,225,18.3,18.3,48,0.00,,,0.00,WUHU215HW,2013-05-17 17:27:00,
2013-05-17 12:29:00,79.9,58.5,30.04,SSW,210,8.7,18.3,48,0.00,,,0.00,WUHU215HW,2013-05-17 17:29:00,
2013-05-17 12:32:00,80.2,58.2,30.04,South,180,4.9,18.3,47,0.00,,,0.00,WUHU215HW,2013-05-17 17:32:00,
2013-05-17 12:35:00,80.8,59.4,30.04,South,180,1.3,18.3,48,0.00,,,0.00,WUHU215HW,2013-05-17 17:35:00,
2013-05-17 12:38:00,81.1,59.0,30.04,ESE,113,1.7,4.9,47,0.00,,,0.00,WUHU215HW,2013-05-17 17:38:00,
2013-05-17 12:40:00,81.7,59.6,30.04,ESE,113,1.7,4.9,47,0.00,,,0.00,WUHU215HW,2013-05-17 17:40:00,
2013-05-17 12:41:00,81.7,59.6,30.04,ESE,113,1.7,1.7,47,0.00,,,0.00,WUHU215HW,2013-05-17 17:41:00,
2013-05-17 12:43:00,82.2,58.8,30.04,South,180,2.9,2.9,45,0.00,,,0.00,WUHU215HW,2013-05-17 17:43:00,
2013-05-17 12:45:00,82.4,59.6,30.04,SSE,151,1.4,2.9,46,0.00,,,0.00,WUHU215HW,2013-05-17 17:45:00,
2013-05-17 12:46:00,82.6,59.2,30.04,East,90,1.5,2.9,45,0.00,,,0.00,WUHU215HW,2013-05-17 17:46:00,
2013-05-17 12:48:00,82.9,58.8,30.04,ESE,103,1.1,2.9,44,0.00,,,0.00,WUHU215HW,2013-05-17 17:48:00,
2013-05-17 12:51:00,83.4,59.2,30.04,SSE,158,6.4,6.4,44,0.00,,,0.00,WUHU215HW,2013-05-17 17:51:00,
2013-05-17 12:52:00,83.4,59.2,30.04,South,172,2.8,6.4,44,0.00,,,0.00,WUHU215HW,2013-05-17 17:52:00,
2013-05-17 12:53:00,83.4,59.2,30.04,South,184,3.0,6.4,44,0.00,,,0.00,WUHU215HW,2013-05-17 17:53:00,
2013-05-17 12:54:00,83.4,59.2,30.04,SW,225,2.2,6.4,44,0.00,,,0.00,WUHU215HW,2013-05-17 17:54:00,
2013-05-17 12:57:00,84.3,59.4,30.04,SW,225,2.2,6.4,43,0.00,,,0.00,WUHU215HW,2013-05-17 17:57:00,
2013-05-17 12:58:00,84.3,59.4,30.04,SW,225,2.2,6.4,43,0.00,,,0.00,WUHU215HW,2013-05-17 17:58:00,
2013-05-17 13:00:00,84.3,59.4,30.04,SW,225,2.2,6.4,43,0.00,,,0.00,WUHU215HW,2013-05-17 18:00:00,
2013-05-17 13:02:00,84.5,59.6,30.04,South,180,2.6,2.6,43,0.00,,,0.00,WUHU215HW,2013-05-17 18:02:00,
2013-05-17 13:03:00,84.7,59.0,30.04,SSW,203,2.9,2.9,42,0.00,,,0.00,WUHU215HW,2013-05-17 18:03:00,
2013-05-17 13:07:00,84.9,59.2,30.04,South,180,8.2,8.2,42,0.00,,,0.00,WUHU215HW,2013-05-17 18:07:00,
2013-05-17 13:08:00,84.9,59.3,30.04,South,180,8.2,8.2,42,0.00,,,0.00,WUHU215HW,2013-05-17 18:08:00,
2013-05-17 13:10:00,84.9,59.3,30.04,SSE,167,5.1,8.2,42,0.00,,,0.00,WUHU215HW,2013-05-17 18:10:00,
2013-05-17 13:11:00,85.0,59.3,30.04,ENE,68,3.8,8.2,42,0.00,,,0.00,WUHU215HW,2013-05-17 18:11:00,
2013-05-17 13:12:00,85.2,59.5,30.04,ENE,68,3.8,8.2,42,0.00,,,0.00,WUHU215HW,2013-05-17 18:12:00,
2013-05-17 13:13:00,85.2,59.5,30.04,ENE,77,2.4,8.2,42,0.00,,,0.00,WUHU215HW,2013-05-17 18:13:00,
2013-05-17 13:15:00,85.2,59.5,30.04,South,180,1.3,8.2,42,0.00,,,0.00,WUHU215HW,2013-05-17 18:15:00,
2013-05-17 13:16:00,85.2,59.5,30.04,South,180,1.3,8.2,42,0.00,,,0.00,WUHU215HW,2013-05-17 18:16:00,
2013-05-17 13:17:00,85.2,58.9,30.04,South,180,1.3,8.2,41,0.00,,,0.00,WUHU215HW,2013-05-17 18:17:00,
2013-05-17 13:18:00,85.3,58.9,30.04,South,180,1.3,8.2,41,0.00,,,0.00,WUHU215HW,2013-05-17 18:18:00,
2013-05-17 13:21:00,85.5,59.1,30.04,SSW,203,2.0,3.8,41,0.00,,,0.00,WUHU215HW,2013-05-17 18:21:00,
2013-05-17 13:23:00,85.7,59.3,30.04,South,180,11.4,11.4,41,0.00,,,0.00,WUHU215HW,2013-05-17 18:23:00,
2013-05-17 13:24:00,85.8,59.3,30.04,South,180,11.4,11.4,41,0.00,,,0.00,WUHU215HW,2013-05-17 18:24:00,
2013-05-17 13:28:00,85.9,59.5,30.04,SSE,158,2.2,11.4,41,0.00,,,0.00,WUHU215HW,2013-05-17 18:28:00,
2013-05-17 13:29:00,86.2,59.7,30.04,West,270,4.9,11.4,41,0.00,,,0.00,WUHU215HW,2013-05-17 18:29:00,
2013-05-17 13:31:00,86.4,59.9,30.04,West,267,3.1,11.4,41,0.00,,,0.00,WUHU215HW,2013-05-17 18:31:00,
2013-05-17 13:34:00,86.5,60.0,30.04,SSW,203,12.3,12.3,41,0.00,,,0.00,WUHU215HW,2013-05-17 18:34:00,
2013-05-17 13:35:00,86.5,60.0,30.04,SSW,203,12.3,12.3,41,0.00,,,0.00,WUHU215HW,2013-05-17 18:35:00,
2013-05-17 13:36:00,86.7,60.2,30.04,SSE,158,28.1,28.1,41,0.00,,,0.00,WUHU215HW,2013-05-17 18:36:00,
2013-05-17 13:37:00,86.7,60.2,30.04,SSE,158,28.1,28.1,41,0.00,,,0.00,WUHU215HW,2013-05-17 18:37:00,
2013-05-17 13:41:00,87.0,59.8,30.04,SSE,152,17.2,28.1,40,0.00,,,0.00,WUHU215HW,2013-05-17 18:41:00,
2013-05-17 13:42:00,87.1,59.8,30.04,SE,131,7.0,28.1,40,0.00,,,0.00,WUHU215HW,2013-05-17 18:42:00,
2013-05-17 13:43:00,87.1,59.8,30.04,North,0,19.6,28.1,40,0.00,,,0.00,WUHU215HW,2013-05-17 18:43:00,
2013-05-17 13:45:00,87.2,59.9,30.04,North,0,19.6,28.1,40,0.00,,,0.00,WUHU215HW,2013-05-17 18:45:00,
2013-05-17 13:47:00,87.3,60.7,30.04,ESE,113,16.3,28.1,41,0.00,,,0.00,WUHU215HW,2013-05-17 18:47:00,
2013-05-17 13:48:00,87.5,60.9,30.04,ESE,114,11.8,28.1,41,0.00,,,0.00,WUHU215HW,2013-05-17 18:48:00,
2013-05-17 13:49:00,87.5,60.9,30.04,ESE,118,7.3,28.1,41,0.00,,,0.00,WUHU215HW,2013-05-17 18:49:00,
2013-05-17 13:50:00,87.8,61.1,30.04,SE,139,2.3,28.1,41,0.00,,,0.00,WUHU215HW,2013-05-17 18:50:00,
2013-05-17 13:54:00,88.1,61.4,30.04,South,179,17.1,25.9,41,0.00,,,0.00,WUHU215HW,2013-05-17 18:54:00,
2013-05-17 13:55:00,88.1,61.4,30.04,South,175,9.5,25.9,41,0.00,,,0.00,WUHU215HW,2013-05-17 18:55:00,
2013-05-17 13:56:00,88.1,61.5,30.04,SE,139,1.4,25.9,41,0.00,,,0.00,WUHU215HW,2013-05-17 18:56:00,
2013-05-17 13:58:00,88.2,60.8,30.04,SSE,158,0.8,25.9,40,0.00,,,0.00,WUHU215HW,2013-05-17 18:58:00,
2013-05-17 14:00:00,88.3,60.8,30.04,SE,135,2.6,25.9,40,0.00,,,0.00,WUHU215HW,2013-05-17 19:00:00,
2013-05-17 14:02:00,88.3,60.9,30.04,SE,135,2.6,25.9,40,0.00,,,0.00,WUHU215HW,2013-05-17 19:02:00,
2013-05-17 14:03:00,88.3,60.9,30.04,SE,135,2.6,25.9,40,0.00,,,0.00,WUHU215HW,2013-05-17 19:03:00,
2013-05-17 14:04:00,88.4,60.2,30.04,WSW,248,11.6,11.6,39,0.00,,,0.00,WUHU215HW,2013-05-17 19:04:00,
2013-05-17 14:09:00,88.5,61.1,30.04,SSE,158,7.7,17.4,40,0.00,,,0.00,WUHU215HW,2013-05-17 19:09:00,
2013-05-17 14:10:00,88.6,61.1,30.04,SSE,158,2.9,17.4,40,0.00,,,0.00,WUHU215HW,2013-05-17 19:10:00,
2013-05-17 14:11:00,88.6,61.9,30.04,SSE,158,2.5,17.4,41,0.00,,,0.00,WUHU215HW,2013-05-17 19:11:00,
2013-05-17 14:13:00,88.9,62.1,30.04,SSE,158,1.7,17.4,41,0.00,,,0.00,WUHU215HW,2013-05-17 19:13:00,
2013-05-17 14:15:00,88.9,61.5,30.04,SSE,158,1.7,17.4,40,0.00,,,0.00,WUHU215HW,2013-05-17 19:15:00,
2013-05-17 14:16:00,89.0,61.5,30.04,ESE,113,23.2,23.2,40,0.00,,,0.00,WUHU215HW,2013-05-17 19:16:00,
2013-05-17 14:19:00,89.1,60.9,30.04,ESE,106,15.6,23.2,39,0.00,,,0.00,WUHU215HW,2013-05-17 19:19:00,
2013-05-17 14:21:00,89.2,60.9,30.04,NNE,23,5.3,23.2,39,0.00,,,0.00,WUHU215HW,2013-05-17 19:21:00,
2013-05-17 14:23:00,88.1,60.7,30.04,NNE,23,5.3,23.2,40,0.00,,,0.00,WUHU215HW,2013-05-17 19:23:00,
2013-05-17 14:25:00,88.2,60.8,30.04,SE,135,24.3,24.3,40,0.00,,,0.00,WUHU215HW,2013-05-17 19:25:00,
2013-05-17 14:26:00,88.0,60.7,30.04,SE,135,24.3,24.3,40,0.00,,,0.00,WUHU215HW,2013-05-17 19:26:00,
2013-05-17 14:27:00,88.1,60.7,30.04,SE,135,24.3,24.3,40,0.00,,,0.00,WUHU215HW,2013-05-17 19:27:00,
2013-05-17 14:29:00,88.2,60.8,30.04,SE,135,24.3,24.3,40,0.00,,,0.00,WUHU215HW,2013-05-17 19:29:00,
2013-05-17 14:30:00,88.2,60.8,30.04,SE,135,24.3,24.3,40,0.00,,,0.00,WUHU215HW,2013-05-17 19:30:00,
2013-05-17 14:34:00,88.3,60.9,30.04,SSE,158,12.5,24.3,40,0.00,,,0.00,WUHU215HW,2013-05-17 19:34:00,
2013-05-17 14:35:00,88.4,61.0,30.04,SSE,158,12.5,24.3,40,0.00,,,0.00,WUHU215HW,2013-05-17 19:35:00,
2013-05-17 14:36:00,88.4,61.7,30.04,SSE,158,12.5,24.3,41,0.00,,,0.00,WUHU215HW,2013-05-17 19:36:00,
2013-05-17 14:38:00,88.5,61.8,30.04,SSE,158,12.5,24.3,41,0.00,,,0.00,WUHU215HW,2013-05-17 19:38:00,
2013-05-17 14:40:00,88.8,61.3,30.04,South,180,14.0,24.3,40,0.00,,,0.00,WUHU215HW,2013-05-17 19:40:00,
2013-05-17 14:43:00,89.1,60.9,30.04,South,180,14.0,14.0,39,0.00,,,0.00,WUHU215HW,2013-05-17 19:43:00,
2013-05-17 14:46:00,89.3,61.8,30.04,SSE,158,4.9,14.0,40,0.00,,,0.00,WUHU215HW,2013-05-17 19:46:00,
2013-05-17 14:47:00,89.4,61.9,30.04,SE,135,0.0,14.0,40,0.00,,,0.00,WUHU215HW,2013-05-17 19:47:00,
2013-05-17 14:49:00,89.5,61.9,30.04,SSE,158,0.6,14.0,40,0.00,,,0.00,WUHU215HW,2013-05-17 19:49:00,
2013-05-17 14:52:00,89.6,61.3,30.04,SE,135,6.2,6.2,39,0.00,,,0.00,WUHU215HW,2013-05-17 19:52:00,
2013-05-17 14:54:00,89.4,61.1,30.04,SE,135,2.6,6.2,39,0.00,,,0.00,WUHU215HW,2013-05-17 19:54:00,
2013-05-17 14:55:00,89.4,61.9,30.04,ENE,68,2.2,6.2,40,0.00,,,0.00,WUHU215HW,2013-05-17 19:55:00,
2013-05-17 14:58:00,89.6,62.0,30.04,SSE,158,2.0,6.2,40,0.00,,,0.00,WUHU215HW,2013-05-17 19:58:00,
2013-05-17 14:59:00,89.8,61.5,30.04,SSE,158,2.0,6.2,39,0.00,,,0.00,WUHU215HW,2013-05-17 19:59:00,
2013-05-17 15:01:00,89.9,62.3,30.04,SSE,158,0.0,6.2,40,0.00,,,0.00,WUHU215HW,2013-05-17 20:01:00,
2013-05-17 15:07:00,90.5,62.8,30.04,SSW,203,2.0,2.0,40,0.00,,,0.00,WUHU215HW,2013-05-17 20:07:00,
2013-05-17 15:08:00,90.5,62.9,30.04,SSW,203,2.0,2.0,40,0.00,,,0.00,WUHU215HW,2013-05-17 20:08:00,
2013-05-17 15:11:00,90.5,62.1,30.04,South,179,1.3,2.0,39,0.00,,,0.00,WUHU215HW,2013-05-17 20:11:00,
2013-05-17 15:22:00,90.7,63.0,30.04,SE,135,1.7,1.7,40,0.00,,,0.00,WUHU215HW,2013-05-17 20:22:00,
2013-05-17 15:23:00,90.7,63.1,30.04,SE,135,1.7,1.7,40,0.00,,,0.00,WUHU215HW,2013-05-17 20:23:00,
2013-05-17 15:26:00,91.2,63.5,30.04,SE,138,1.3,1.7,40,0.00,,,0.00,WUHU215HW,2013-05-17 20:26:00,
2013-05-17 15:28:00,91.0,62.6,30.04,SSW,203,1.5,1.7,39,0.00,,,0.00,WUHU215HW,2013-05-17 20:28:00,
2013-05-17 15:29:00,91.0,62.6,30.04,SSW,203,1.4,1.7,39,0.00,,,0.00,WUHU215HW,2013-05-17 20:29:00,
2013-05-17 15:33:00,91.0,62.6,30.04,SE,135,21.2,21.2,39,0.00,,,0.00,WUHU215HW,2013-05-17 20:33:00,
2013-05-17 15:35:00,90.7,63.1,30.04,SSE,149,14.5,21.2,40,0.00,,,0.00,WUHU215HW,2013-05-17 20:35:00,
2013-05-17 15:38:00,90.9,63.2,30.04,SSE,158,2.6,21.2,40,0.00,,,0.00,WUHU215HW,2013-05-17 20:38:00,
2013-05-17 15:39:00,90.9,63.2,30.04,SSE,152,1.9,21.2,40,0.00,,,0.00,WUHU215HW,2013-05-17 20:39:00,
2013-05-17 15:41:00,91.0,63.3,30.04,SE,135,13.8,21.2,40,0.00,,,0.00,WUHU215HW,2013-05-17 20:41:00,
2013-05-17 15:42:00,91.1,63.4,30.04,SE,135,13.8,21.2,40,0.00,,,0.00,WUHU215HW,2013-05-17 20:42:00,
2013-05-17 15:43:00,91.1,63.4,30.04,SE,135,13.8,21.2,40,0.00,,,0.00,WUHU215HW,2013-05-17 20:43:00,
2013-05-17 15:45:00,91.2,63.5,30.04,SSE,158,25.2,25.2,40,0.00,,,0.00,WUHU215HW,2013-05-17 20:45:00,
2013-05-17 15:48:00,91.4,63.7,30.04,SSE,158,17.8,25.2,40,0.00,,,0.00,WUHU215HW,2013-05-17 20:48:00,
2013-05-17 15:50:00,91.5,63.7,30.04,SSE,158,17.8,25.2,40,0.00,,,0.00,WUHU215HW,2013-05-17 20:50:00,
2013-05-17 15:51:00,91.7,64.0,30.04,SSE,158,17.8,25.2,40,0.00,,,0.00,WUHU215HW,2013-05-17 20:51:00,
2013-05-17 15:53:00,91.8,64.1,30.04,SSE,158,17.8,25.2,40,0.00,,,0.00,WUHU215HW,2013-05-17 20:53:00,
2013-05-17 15:56:00,92.0,64.2,30.04,SSE,158,17.8,17.8,40,0.00,,,0.00,WUHU215HW,2013-05-17 20:56:00,
2013-05-17 15:59:00,91.8,64.1,30.04,SSE,158,1.7,17.8,40,0.00,,,0.00,WUHU215HW,2013-05-17 20:59:00,
2013-05-17 16:02:00,92.0,64.2,30.04,SSE,158,2.6,17.8,40,0.00,,,0.00,WUHU215HW,2013-05-17 21:02:00,
2013-05-17 16:04:00,92.1,63.6,30.04,SSE,158,2.6,17.8,39,0.00,,,0.00,WUHU215HW,2013-05-17 21:04:00,
2013-05-17 16:06:00,92.2,63.7,30.04,NNW,338,0.0,17.8,39,0.00,,,0.00,WUHU215HW,2013-05-17 21:06:00,
2013-05-17 16:07:00,92.3,63.7,30.04,NNW,338,0.0,2.6,39,0.00,,,0.00,WUHU215HW,2013-05-17 21:07:00,
2013-05-17 16:11:00,91.5,63.8,30.04,NE,45,0.0,2.6,40,0.00,,,0.00,WUHU215HW,2013-05-17 21:11:00,
2013-05-17 16:13:00,91.2,63.5,30.04,SSE,158,0.0,0.0,40,0.00,,,0.00,WUHU215HW,2013-05-17 21:13:00,
2013-05-17 16:14:00,90.9,63.2,30.04,SSE,158,0.0,0.0,40,0.00,,,0.00,WUHU215HW,2013-05-17 21:14:00,
2013-05-17 16:15:00,90.8,63.2,30.04,SSE,158,0.0,0.0,40,0.00,,,0.00,WUHU215HW,2013-05-17 21:15:00,
2013-05-17 16:17:00,90.7,63.1,30.04,SSW,203,0.0,0.0,40,0.00,,,0.00,WUHU215HW,2013-05-17 21:17:00,
2013-05-17 16:20:00,90.4,63.5,30.04,SE,135,0.0,0.0,41,0.00,,,0.00,WUHU215HW,2013-05-17 21:20:00,
2013-05-17 16:22:00,90.3,63.4,30.04,South,180,0.6,0.6,41,0.00,,,0.00,WUHU215HW,2013-05-17 21:22:00,
2013-05-17 16:25:00,89.6,62.8,30.04,South,180,0.6,0.6,41,0.00,,,0.00,WUHU215HW,2013-05-17 21:25:00,
2013-05-17 16:26:00,89.6,62.8,30.04,South,180,0.6,0.6,41,0.00,,,0.00,WUHU215HW,2013-05-17 21:26:00,
2013-05-17 16:27:00,89.3,62.5,30.04,ENE,68,1.3,1.3,41,0.00,,,0.00,WUHU215HW,2013-05-17 21:27:00,
2013-05-17 16:28:00,89.3,62.5,30.04,ENE,68,1.3,1.3,41,0.00,,,0.00,WUHU215HW,2013-05-17 21:28:00,
2013-05-17 16:30:00,89.0,62.2,30.04,SSE,158,2.2,2.2,41,0.00,,,0.00,WUHU215HW,2013-05-17 21:30:00,
2013-05-17 16:32:00,88.9,62.1,30.04,SSE,158,2.2,2.2,41,0.00,,,0.00,WUHU215HW,2013-05-17 21:32:00,
2013-05-17 16:33:00,88.6,61.9,30.04,SSE,158,2.2,2.2,41,0.00,,,0.00,WUHU215HW,2013-05-17 21:33:00,
2013-05-17 16:34:00,88.6,61.9,30.04,SSE,158,2.2,2.2,41,0.00,,,0.00,WUHU215HW,2013-05-17 21:34:00,
2013-05-17 16:35:00,88.3,62.3,30.04,SSE,158,2.2,2.2,42,0.00,,,0.00,WUHU215HW,2013-05-17 21:35:00,
2013-05-17 16:37:00,88.2,61.6,30.04,WSW,248,0.0,2.2,41,0.00,,,0.00,WUHU215HW,2013-05-17 21:37:00,
2013-05-17 16:39:00,88.2,61.5,30.04,SSE,158,0.0,2.2,41,0.00,,,0.00,WUHU215HW,2013-05-17 21:39:00,
2013-05-17 16:40:00,87.8,61.2,30.04,SE,135,0.0,2.2,41,0.00,,,0.00,WUHU215HW,2013-05-17 21:40:00,
2013-05-17 16:41:00,87.8,61.1,30.04,SE,135,0.0,2.2,41,0.00,,,0.00,WUHU215HW,2013-05-17 21:41:00,
2013-05-17 16:44:00,87.4,61.5,30.04,ESE,113,1.1,2.2,42,0.00,,,0.00,WUHU215HW,2013-05-17 21:44:00,
2013-05-17 16:45:00,87.4,61.5,30.04,ESE,113,1.1,1.1,42,0.00,,,0.00,WUHU215HW,2013-05-17 21:45:00,
2013-05-17 16:46:00,86.9,61.1,30.04,SSW,203,1.7,1.7,42,0.00,,,0.00,WUHU215HW,2013-05-17 21:46:00,
2013-05-17 16:49:00,86.8,61.0,30.04,SSW,203,1.7,1.7,42,0.00,,,0.00,WUHU215HW,2013-05-17 21:49:00,
2013-05-17 16:50:00,86.8,60.9,30.04,SSE,158,1.0,1.7,42,0.00,,,0.00,WUHU215HW,2013-05-17 21:50:00,
2013-05-17 16:53:00,86.6,61.4,30.04,WSW,248,4.4,4.4,43,0.00,,,0.00,WUHU215HW,2013-05-17 21:53:00,
2013-05-17 16:56:00,86.3,61.2,30.04,SSE,158,8.9,8.9,43,0.00,,,0.00,WUHU215HW,2013-05-17 21:56:00,
2013-05-17 16:57:00,86.2,61.1,30.04,SSE,149,7.1,8.9,43,0.00,,,0.00,WUHU215HW,2013-05-17 21:57:00,
2013-05-17 16:59:00,86.2,60.4,30.04,SE,135,19.6,19.6,42,0.00,,,0.00,WUHU215HW,2013-05-17 21:59:00,
2013-05-17 17:01:00,85.9,60.1,30.04,SE,135,19.6,19.6,42,0.00,,,0.00,WUHU215HW,2013-05-17 22:01:00,
2013-05-17 17:03:00,85.8,60.1,30.04,SE,138,7.5,19.6,42,0.00,,,0.00,WUHU215HW,2013-05-17 22:03:00,
2013-05-17 17:04:00,85.8,60.7,30.04,SSE,156,1.1,19.6,43,0.00,,,0.00,WUHU215HW,2013-05-17 22:04:00,
2013-05-17 17:07:00,85.3,60.3,30.04,SSE,157,11.7,32.4,43,0.00,,,0.00,WUHU215HW,2013-05-17 22:07:00,
2013-05-17 17:08:00,85.3,60.3,30.04,SSE,158,12.4,32.4,43,0.00,,,0.00,WUHU215HW,2013-05-17 22:08:00,
2013-05-17 17:09:00,85.3,59.6,30.04,SSE,149,1.7,32.4,42,0.00,,,0.00,WUHU215HW,2013-05-17 22:09:00,
2013-05-17 17:12:00,85.1,60.1,30.04,East,90,1.3,32.4,43,0.00,,,0.00,WUHU215HW,2013-05-17 22:12:00,
2013-05-17 17:13:00,84.9,59.9,30.04,East,90,1.3,32.4,43,0.00,,,0.00,WUHU215HW,2013-05-17 22:13:00,
2013-05-17 17:16:00,84.8,59.8,30.04,West,270,16.5,32.4,43,0.00,,,0.00,WUHU215HW,2013-05-17 22:16:00,
2013-05-17 17:18:00,84.8,59.8,30.04,West,268,10.7,16.5,43,0.00,,,0.00,WUHU215HW,2013-05-17 22:18:00,
2013-05-17 17:19:00,84.8,59.8,30.04,West,262,4.8,16.5,43,0.00,,,0.00,WUHU215HW,2013-05-17 22:19:00,
2013-05-17 17:21:00,84.7,59.8,30.04,SSE,158,5.8,16.5,43,0.00,,,0.00,WUHU215HW,2013-05-17 22:21:00,
2013-05-17 17:22:00,84.5,60.2,30.04,SSE,158,5.8,16.5,44,0.00,,,0.00,WUHU215HW,2013-05-17 22:22:00,
2013-05-17 17:24:00,84.5,60.2,30.04,South,180,6.4,16.5,44,0.00,,,0.00,WUHU215HW,2013-05-17 22:24:00,
2013-05-17 17:26:00,84.5,60.2,30.04,South,180,6.4,16.5,44,0.00,,,0.00,WUHU215HW,2013-05-17 22:26:00,
2013-05-17 17:27:00,84.5,60.2,30.04,South,180,6.4,16.5,44,0.00,,,0.00,WUHU215HW,2013-05-17 22:27:00,
2013-05-17 17:30:00,84.2,60.0,30.04,South,180,16.1,16.1,44,0.00,,,0.00,WUHU215HW,2013-05-17 22:30:00,
2013-05-17 17:31:00,84.2,60.0,30.04,South,180,16.1,16.1,44,0.00,,,0.00,WUHU215HW,2013-05-17 22:31:00,
2013-05-17 17:35:00,84.0,59.8,30.04,SE,135,0.0,16.1,44,0.00,,,0.00,WUHU215HW,2013-05-17 22:35:00,
2013-05-17 17:36:00,84.0,59.8,30.04,SE,135,0.0,16.1,44,0.00,,,0.00,WUHU215HW,2013-05-17 22:36:00,
2013-05-17 17:38:00,84.0,59.8,30.04,SSE,158,0.0,16.1,44,0.00,,,0.00,WUHU215HW,2013-05-17 22:38:00,
2013-05-17 17:39:00,83.9,59.7,30.04,SSE,158,0.0,16.1,44,0.00,,,0.00,WUHU215HW,2013-05-17 22:39:00,
2013-05-17 17:40:00,83.9,59.7,30.04,SSE,158,0.0,16.1,44,0.00,,,0.00,WUHU215HW,2013-05-17 22:40:00,
2013-05-17 17:41:00,83.9,59.7,30.04,SSE,158,0.0,16.1,44,0.00,,,0.00,WUHU215HW,2013-05-17 22:41:00,
2013-05-17 17:44:00,83.9,59.7,30.04,SSE,158,4.4,4.4,44,0.00,,,0.00,WUHU215HW,2013-05-17 22:44:00,
2013-05-17 17:45:00,83.7,59.5,30.04,SSE,158,4.4,4.4,44,0.00,,,0.00,WUHU215HW,2013-05-17 22:45:00,
2013-05-17 17:47:00,83.7,59.5,30.04,SSE,158,4.4,4.4,44,0.00,,,0.00,WUHU215HW,2013-05-17 22:47:00,
2013-05-17 17:48:00,83.7,59.5,30.04,SSE,158,4.4,4.4,44,0.00,,,0.00,WUHU215HW,2013-05-17 22:48:00,
2013-05-17 17:50:00,83.8,59.6,30.04,SSE,160,4.3,5.5,44,0.00,,,0.00,WUHU215HW,2013-05-17 22:50:00,
2013-05-17 17:51:00,83.8,59.6,30.04,SSE,154,4.0,5.5,44,0.00,,,0.00,WUHU215HW,2013-05-17 22:51:00,
2013-05-17 17:53:00,83.6,59.4,30.04,SSE,158,20.8,20.8,44,0.00,,,0.00,WUHU215HW,2013-05-17 22:53:00,
2013-05-17 17:55:00,83.6,59.4,30.04,SSE,147,17.3,20.8,44,0.00,,,0.00,WUHU215HW,2013-05-17 22:55:00,
2013-05-17 17:56:00,83.6,59.4,30.04,SE,132,14.7,20.8,44,0.00,,,0.00,WUHU215HW,2013-05-17 22:56:00,
2013-05-17 17:58:00,83.7,59.5,30.04,ESE,114,4.8,20.8,44,0.00,,,0.00,WUHU215HW,2013-05-17 22:58:00,
2013-05-17 18:00:00,83.5,59.3,30.04,SE,135,1.3,20.8,44,0.00,,,0.00,WUHU215HW,2013-05-17 23:00:00,
2013-05-17 18:02:00,83.6,59.4,30.04,SSE,158,2.0,20.8,44,0.00,,,0.00,WUHU215HW,2013-05-17 23:02:00,
2013-05-17 18:04:00,83.4,59.2,30.04,SE,135,18.1,20.8,44,0.00,,,0.00,WUHU215HW,2013-05-17 23:04:00,
2013-05-17 18:06:00,83.5,59.3,30.04,SSE,147,12.8,18.1,44,0.00,,,0.00,WUHU215HW,2013-05-17 23:06:00,
2013-05-17 18:07:00,83.5,59.3,30.04,SSE,158,10.5,18.1,44,0.00,,,0.00,WUHU215HW,2013-05-17 23:07:00,
2013-05-17 18:08:00,83.5,59.3,30.04,SSE,158,10.5,18.1,44,0.00,,,0.00,WUHU215HW,2013-05-17 23:08:00,
2013-05-17 18:09:00,83.5,59.3,30.04,SSE,158,4.4,18.1,44,0.00,,,0.00,WUHU215HW,2013-05-17 23:09:00,
2013-05-17 18:11:00,83.6,60.0,30.04,SSE,158,4.4,18.1,45,0.00,,,0.00,WUHU215HW,2013-05-17 23:11:00,
2013-05-17 18:12:00,83.3,59.8,30.04,SSE,158,4.4,18.1,45,0.00,,,0.00,WUHU215HW,2013-05-17 23:12:00,
2013-05-17 18:13:00,83.3,59.8,30.04,SSE,158,4.4,18.1,45,0.00,,,0.00,WUHU215HW,2013-05-17 23:13:00,
2013-05-17 18:15:00,83.4,59.9,30.04,SSE,158,0.8,10.5,45,0.00,,,0.00,WUHU215HW,2013-05-17 23:15:00,
2013-05-17 18:16:00,83.4,59.9,30.04,SSE,158,10.9,10.9,45,0.00,,,0.00,WUHU215HW,2013-05-17 23:16:00,
2013-05-17 18:17:00,83.5,59.9,30.04,SSE,158,10.9,10.9,45,0.00,,,0.00,WUHU215HW,2013-05-17 23:17:00,
2013-05-17 18:18:00,83.5,60.0,30.04,SSE,158,10.9,10.9,45,0.00,,,0.00,WUHU215HW,2013-05-17 23:18:00,
2013-05-17 18:20:00,83.4,59.8,30.04,SSW,203,8.5,10.9,45,0.00,,,0.00,WUHU215HW,2013-05-17 23:20:00,
2013-05-17 18:22:00,83.4,59.9,30.04,SSW,199,6.0,10.9,45,0.00,,,0.00,WUHU215HW,2013-05-17 23:22:00,
2013-05-17 18:23:00,83.5,59.9,30.04,South,191,3.6,10.9,45,0.00,,,0.00,WUHU215HW,2013-05-17 23:23:00,
2013-05-17 18:24:00,83.1,59.6,30.04,SSE,158,1.5,10.9,45,0.00,,,0.00,WUHU215HW,2013-05-17 23:24:00,
2013-05-17 18:25:00,83.2,59.6,30.04,SSE,158,2.4,10.9,45,0.00,,,0.00,WUHU215HW,2013-05-17 23:25:00,
2013-05-17 18:29:00,83.3,59.8,30.04,SSE,158,2.9,8.5,45,0.00,,,0.00,WUHU215HW,2013-05-17 23:29:00,
2013-05-17 18:30:00,83.4,59.8,30.04,SSE,158,2.9,8.5,45,0.00,,,0.00,WUHU215HW,2013-05-17 23:30:00,
2013-05-17 18:34:00,83.4,60.5,30.04,SSE,158,3.8,3.8,46,0.00,,,0.00,WUHU215HW,2013-05-17 23:34:00,
2013-05-17 18:35:00,83.5,60.6,30.04,SE,144,2.9,3.8,46,0.00,,,0.00,WUHU215HW,2013-05-17 23:35:00,
2013-05-17 18:36:00,83.5,60.6,30.04,ESE,121,2.3,3.8,46,0.00,,,0.00,WUHU215HW,2013-05-17 23:36:00,
2013-05-17 18:37:00,83.4,60.5,30.04,East,90,2.2,3.8,46,0.00,,,0.00,WUHU215HW,2013-05-17 23:37:00,
2013-05-17 18:40:00,83.3,60.4,30.04,SE,135,4.4,4.4,46,0.00,,,0.00,WUHU215HW,2013-05-17 23:40:00,
2013-05-17 18:41:00,83.3,60.5,30.04,SE,135,4.4,4.4,46,0.00,,,0.00,WUHU215HW,2013-05-17 23:41:00,
2013-05-17 18:42:00,83.4,60.5,30.04,SE,135,3.3,4.4,46,0.00,,,0.00,WUHU215HW,2013-05-17 23:42:00,
2013-05-17 18:43:00,83.4,60.5,30.04,SE,135,2.2,4.4,46,0.00,,,0.00,WUHU215HW,2013-05-17 23:43:00,
2013-05-17 18:45:00,83.5,60.6,30.04,SSE,158,2.4,4.4,46,0.00,,,0.00,WUHU215HW,2013-05-17 23:45:00,
2013-05-17 18:46:00,83.4,60.5,30.04,SSE,151,2.2,4.4,46,0.00,,,0.00,WUHU215HW,2013-05-17 23:46:00,
2013-05-17 18:50:00,83.4,60.5,30.04,South,180,3.5,4.4,46,0.00,,,0.00,WUHU215HW,2013-05-17 23:50:00,
2013-05-17 18:51:00,83.4,60.5,30.04,South,180,3.5,4.4,46,0.00,,,0.00,WUHU215HW,2013-05-17 23:51:00,
2013-05-17 18:52:00,83.4,60.5,30.04,South,180,3.5,3.5,46,0.00,,,0.00,WUHU215HW,2013-05-17 23:52:00,
2013-05-17 18:53:00,83.4,60.5,30.04,South,180,3.5,3.5,46,0.00,,,0.00,WUHU215HW,2013-05-17 23:53:00,
2013-05-17 18:56:00,83.4,61.1,30.04,SSW,203,1.7,3.5,47,0.00,,,0.00,WUHU215HW,2013-05-17 23:56:00,
2013-05-17 18:59:00,83.5,61.3,30.04,SSE,158,1.5,3.5,47,0.00,,,0.00,WUHU215HW,2013-05-17 23:59:00,
2013-05-17 19:00:00,83.6,61.3,30.04,SSE,158,1.5,3.5,47,0.00,,,0.00,WUHU215HW,2013-05-18 00:00:00,
2013-05-17 19:01:00,83.6,61.4,30.04,SSE,158,4.4,4.4,47,0.00,,,0.00,WUHU215HW,2013-05-18 00:01:00,
2013-05-17 19:03:00,83.5,61.3,30.04,SSE,158,4.4,4.4,47,0.00,,,0.00,WUHU215HW,2013-05-18 00:03:00,
2013-05-17 19:05:00,83.6,61.4,30.04,SSE,158,0.0,4.4,47,0.00,,,0.00,WUHU215HW,2013-05-18 00:05:00,
2013-05-17 19:06:00,83.7,61.4,30.04,SSE,158,0.0,4.4,47,0.00,,,0.00,WUHU215HW,2013-05-18 00:06:00,
2013-05-17 19:07:00,83.6,61.3,30.04,ENE,68,0.4,4.4,47,0.00,,,0.00,WUHU215HW,2013-05-18 00:07:00,
2013-05-17 19:09:00,83.6,61.2,30.04,ENE,68,0.4,4.4,47,0.00,,,0.00,WUHU215HW,2013-05-18 00:09:00,
2013-05-17 19:10:00,83.4,61.0,30.04,ENE,68,0.4,4.4,47,0.00,,,0.00,WUHU215HW,2013-05-18 00:10:00,
2013-05-17 19:12:00,83.3,60.9,30.04,SSE,158,0.6,4.4,47,0.00,,,0.00,WUHU215HW,2013-05-18 00:12:00,
2013-05-17 19:15:00,83.3,61.5,30.04,SSE,158,0.5,0.6,48,0.00,,,0.00,WUHU215HW,2013-05-18 00:15:00,
2013-05-17 19:16:00,83.1,61.3,30.04,SSE,158,0.4,0.6,48,0.00,,,0.00,WUHU215HW,2013-05-18 00:16:00,
2013-05-17 19:17:00,83.1,61.3,30.04,SSE,158,0.4,0.6,48,0.00,,,0.00,WUHU215HW,2013-05-18 00:17:00,
2013-05-17 19:20:00,83.1,61.3,30.04,SSE,158,0.0,0.6,48,0.00,,,0.00,WUHU215HW,2013-05-18 00:20:00,
2013-05-17 19:21:00,83.1,61.3,30.04,SSE,158,0.0,0.6,48,0.00,,,0.00,WUHU215HW,2013-05-18 00:21:00,
2013-05-17 19:23:00,82.9,61.3,30.04,SSE,158,3.3,3.3,49,0.00,,,0.00,WUHU215HW,2013-05-18 00:23:00,
2013-05-17 19:24:00,82.7,61.3,30.04,SE,135,3.5,3.5,49,0.00,,,0.00,WUHU215HW,2013-05-18 00:24:00,
2013-05-17 19:28:00,82.5,61.3,30.04,SSE,158,4.9,4.9,49,0.00,,,0.00,WUHU215HW,2013-05-18 00:28:00,
2013-05-17 19:29:00,82.5,61.4,30.04,SSE,158,3.8,4.9,49,0.00,,,0.00,WUHU215HW,2013-05-18 00:29:00,
2013-05-17 19:30:00,82.5,61.4,30.04,SSE,158,2.8,4.9,49,0.00,,,0.00,WUHU215HW,2013-05-18 00:30:00,
2013-05-17 19:33:00,82.2,61.1,30.04,SSE,155,3.0,4.9,49,0.00,,,0.00,WUHU215HW,2013-05-18 00:33:00,
2013-05-17 19:34:00,82.2,61.1,30.04,SSE,150,2.0,4.9,49,0.00,,,0.00,WUHU215HW,2013-05-18 00:34:00,
2013-05-17 19:35:00,82.2,61.1,30.04,SE,135,1.1,4.9,49,0.00,,,0.00,WUHU215HW,2013-05-18 00:35:00,
2013-05-17 19:39:00,82.0,61.1,30.04,SSE,158,2.4,4.0,50,0.00,,,0.00,WUHU215HW,2013-05-18 00:39:00,
2013-05-17 19:40:00,82.0,61.5,30.04,SSE,158,2.4,4.0,50,0.00,,,0.00,WUHU215HW,2013-05-18 00:40:00,
2013-05-17 19:41:00,82.0,61.5,30.04,SSE,158,2.4,4.0,50,0.00,,,0.00,WUHU215HW,2013-05-18 00:41:00,
2013-05-17 19:44:00,81.6,61.2,30.04,SSE,158,1.8,2.4,50,0.00,,,0.00,WUHU215HW,2013-05-18 00:44:00,
2013-05-17 19:45:00,81.6,61.2,30.04,SSE,158,1.2,2.4,50,0.00,,,0.00,WUHU215HW,2013-05-18 00:45:00,
2013-05-17 19:46:00,81.5,61.0,30.04,SE,135,0.8,2.4,50,0.00,,,0.00,WUHU215HW,2013-05-18 00:46:00,
2013-05-17 19:47:00,81.5,61.0,30.04,SE,135,0.8,2.4,50,0.00,,,0.00,WUHU215HW,2013-05-18 00:47:00,
2013-05-17 19:49:00,81.3,61.4,30.04,SE,135,0.8,2.4,51,0.00,,,0.00,WUHU215HW,2013-05-18 00:49:00,
2013-05-17 19:51:00,81.1,61.4,30.04,SE,135,0.8,2.4,51,0.00,,,0.00,WUHU215HW,2013-05-18 00:51:00,
2013-05-17 19:54:00,81.1,61.2,30.04,SSE,158,0.0,0.8,51,0.00,,,0.00,WUHU215HW,2013-05-18 00:54:00,
2013-05-17 19:55:00,81.1,61.2,30.04,SE,135,0.0,0.8,51,0.00,,,0.00,WUHU215HW,2013-05-18 00:55:00,
2013-05-17 20:00:00,80.4,61.2,30.04,SSE,158,1.7,1.7,52,0.00,,,0.00,WUHU215HW,2013-05-18 01:00:00,
2013-05-17 20:01:00,80.4,61.2,30.04,SE,135,2.6,2.6,52,0.00,,,0.00,WUHU215HW,2013-05-18 01:01:00,
2013-05-17 20:04:00,80.2,60.9,30.04,SE,135,2.6,2.6,52,0.00,,,0.00,WUHU215HW,2013-05-18 01:04:00,
2013-05-17 20:05:00,80.0,60.9,30.04,SE,135,2.6,2.6,52,0.00,,,0.00,WUHU215HW,2013-05-18 01:05:00,
2013-05-17 20:09:00,79.7,60.4,30.04,SSE,158,6.7,6.7,52,0.00,,,0.00,WUHU215HW,2013-05-18 01:09:00,
2013-05-17 20:10:00,79.7,60.4,30.04,SSE,158,6.7,6.7,52,0.00,,,0.00,WUHU215HW,2013-05-18 01:10:00,
2013-05-17 20:11:00,79.7,60.4,30.04,SSE,158,6.7,6.7,52,0.00,,,0.00,WUHU215HW,2013-05-18 01:11:00,
2013-05-17 20:12:00,79.5,60.8,30.04,SSE,158,6.7,6.7,53,0.00,,,0.00,WUHU215HW,2013-05-18 01:12:00,
2013-05-17 20:16:00,79.3,60.6,30.04,SSE,158,0.0,6.7,53,0.00,,,0.00,WUHU215HW,2013-05-18 01:16:00,
2013-05-17 20:17:00,79.3,60.6,30.04,SSE,158,0.0,6.7,53,0.00,,,0.00,WUHU215HW,2013-05-18 01:17:00,
2013-05-17 20:21:00,78.9,60.6,30.04,SSE,158,0.2,6.7,53,0.00,,,0.00,WUHU215HW,2013-05-18 01:21:00,
2013-05-17 20:23:00,78.8,60.6,30.04,SSE,158,0.0,0.2,54,0.00,,,0.00,WUHU215HW,2013-05-18 01:23:00,
2013-05-17 20:26:00,78.8,60.6,30.04,SSE,158,2.6,2.6,54,0.00,,,0.00,WUHU215HW,2013-05-18 01:26:00,
2013-05-17 20:28:00,78.6,60.6,30.04,SSE,158,2.6,2.6,54,0.00,,,0.00,WUHU215HW,2013-05-18 01:28:00,
2013-05-17 20:29:00,78.6,60.5,30.04,SSE,158,2.6,2.6,54,0.00,,,0.00,WUHU215HW,2013-05-18 01:29:00,
2013-05-17 20:33:00,78.0,60.5,30.04,SSE,158,0.0,2.6,55,0.00,,,0.00,WUHU215HW,2013-05-18 01:33:00,
2013-05-17 20:34:00,78.0,60.5,30.04,SSE,158,0.0,2.6,55,0.00,,,0.00,WUHU215HW,2013-05-18 01:34:00,
2013-05-17 20:37:00,77.7,60.2,30.04,SSE,158,0.6,2.6,55,0.00,,,0.00,WUHU215HW,2013-05-18 01:37:00,
2013-05-17 20:38:00,77.7,60.2,30.04,SSE,158,0.6,2.6,55,0.00,,,0.00,WUHU215HW,2013-05-18 01:38:00,
2013-05-17 20:41:00,77.5,60.3,30.04,SSE,158,0.6,0.6,55,0.00,,,0.00,WUHU215HW,2013-05-18 01:41:00,
2013-05-17 20:43:00,77.3,60.3,30.04,SSE,158,0.6,0.6,56,0.00,,,0.00,WUHU215HW,2013-05-18 01:43:00,
2013-05-17 20:45:00,77.3,60.3,30.04,SSE,158,0.0,0.6,56,0.00,,,0.00,WUHU215HW,2013-05-18 01:45:00,
2013-05-17 20:47:00,77.1,60.2,30.04,ESE,113,0.0,0.6,56,0.00,,,0.00,WUHU215HW,2013-05-18 01:47:00,
2013-05-17 20:48:00,76.8,59.8,30.04,SE,135,0.0,0.6,56,0.00,,,0.00,WUHU215HW,2013-05-18 01:48:00,
2013-05-17 20:50:00,76.8,59.8,30.04,SE,135,0.0,0.6,56,0.00,,,0.00,WUHU215HW,2013-05-18 01:50:00,
2013-05-17 20:52:00,76.6,59.8,30.04,SSE,158,0.0,0.0,56,0.00,,,0.00,WUHU215HW,2013-05-18 01:52:00,
2013-05-17 20:54:00,76.4,59.8,30.04,SSE,158,0.0,0.0,57,0.00,,,0.00,WUHU215HW,2013-05-18 01:54:00,
2013-05-17 20:57:00,76.4,60.0,30.04,SSE,158,1.5,1.5,57,0.00,,,0.00,WUHU215HW,2013-05-18 01:57:00,
2013-05-17 21:00:00,76.4,60.0,30.04,SSE,158,1.5,1.5,57,0.00,,,0.00,WUHU215HW,2013-05-18 02:00:00,
2013-05-17 21:01:00,76.1,60.2,30.04,SSE,158,1.5,1.5,58,0.00,,,0.00,WUHU215HW,2013-05-18 02:01:00,
2013-05-17 21:02:00,76.1,60.2,30.04,SSE,158,1.5,1.5,58,0.00,,,0.00,WUHU215HW,2013-05-18 02:02:00,
2013-05-17 21:04:00,75.9,60.0,30.04,SSE,158,0.0,1.5,58,0.00,,,0.00,WUHU215HW,2013-05-18 02:04:00,
2013-05-17 21:05:00,75.9,60.0,30.04,SSE,158,0.0,1.5,58,0.00,,,0.00,WUHU215HW,2013-05-18 02:05:00,
2013-05-17 21:07:00,75.7,59.9,30.04,SE,135,0.0,1.5,58,0.00,,,0.00,WUHU215HW,2013-05-18 02:07:00,
2013-05-17 21:08:00,75.7,59.9,30.04,SE,135,0.0,1.5,58,0.00,,,0.00,WUHU215HW,2013-05-18 02:08:00,
2013-05-17 21:09:00,75.5,59.9,30.04,SSE,158,1.3,1.5,58,0.00,,,0.00,WUHU215HW,2013-05-18 02:09:00,
2013-05-17 21:10:00,75.5,59.9,30.04,SSE,158,1.3,1.5,58,0.00,,,0.00,WUHU215HW,2013-05-18 02:10:00,
2013-05-17 21:12:00,75.3,59.5,30.04,SSE,158,1.3,1.3,58,0.00,,,0.00,WUHU215HW,2013-05-18 02:12:00,
2013-05-17 21:14:00,75.3,59.5,30.04,SSE,158,0.0,1.3,58,0.00,,,0.00,WUHU215HW,2013-05-18 02:14:00,
2013-05-17 21:17:00,75.2,59.9,30.04,SSE,158,0.0,1.3,59,0.00,,,0.00,WUHU215HW,2013-05-18 02:17:00,
2013-05-17 21:18:00,75.2,59.9,30.04,ESE,113,0.0,1.3,59,0.00,,,0.00,WUHU215HW,2013-05-18 02:18:00,
2013-05-17 21:19:00,75.2,59.9,30.04,ESE,113,0.0,1.3,59,0.00,,,0.00,WUHU215HW,2013-05-18 02:19:00,
2013-05-17 21:22:00,74.8,59.7,30.04,SSE,158,0.0,0.0,59,0.00,,,0.00,WUHU215HW,2013-05-18 02:22:00,
2013-05-17 21:24:00,74.8,59.5,30.04,SSE,158,0.0,0.0,59,0.00,,,0.00,WUHU215HW,2013-05-18 02:24:00,
2013-05-17 21:27:00,74.8,60.0,30.04,SSE,158,0.8,0.8,60,0.00,,,0.00,WUHU215HW,2013-05-18 02:27:00,
2013-05-17 21:28:00,74.8,60.0,30.04,SSE,158,0.8,0.8,60,0.00,,,0.00,WUHU215HW,2013-05-18 02:28:00,
2013-05-17 21:29:00,74.4,59.7,30.04,SSE,158,0.8,0.8,60,0.00,,,0.00,WUHU215HW,2013-05-18 02:29:00,
2013-05-17 21:30:00,74.4,59.7,30.04,SSE,158,0.8,0.8,60,0.00,,,0.00,WUHU215HW,2013-05-18 02:30:00,
2013-05-17 21:34:00,74.3,59.9,30.04,SSE,158,0.0,0.8,61,0.00,,,0.00,WUHU215HW,2013-05-18 02:34:00,
2013-05-17 21:35:00,74.1,59.7,30.04,SSE,158,0.0,0.8,61,0.00,,,0.00,WUHU215HW,2013-05-18 02:35:00,
2013-05-17 21:39:00,74.1,59.7,30.04,SSE,158,4.4,4.4,61,0.00,,,0.00,WUHU215HW,2013-05-18 02:39:00,
2013-05-17 21:40:00,74.1,59.7,30.04,SSE,158,4.4,4.4,61,0.00,,,0.00,WUHU215HW,2013-05-18 02:40:00,
2013-05-17 21:41:00,74.1,59.7,30.04,SSE,158,0.0,4.4,61,0.00,,,0.00,WUHU215HW,2013-05-18 02:41:00,
2013-05-17 21:44:00,73.9,59.6,30.04,SSE,158,5.5,5.5,61,0.00,,,0.00,WUHU215HW,2013-05-18 02:44:00,
2013-05-17 21:46:00,73.7,59.8,30.04,SSE,158,5.5,5.5,62,0.00,,,0.00,WUHU215HW,2013-05-18 02:46:00,
2013-05-17 21:47:00,73.7,59.8,30.04,SSE,158,5.5,5.5,62,0.00,,,0.00,WUHU215HW,2013-05-18 02:47:00,
2013-05-17 21:48:00,73.7,59.8,30.04,SSE,158,0.0,5.5,62,0.00,,,0.00,WUHU215HW,2013-05-18 02:48:00,
2013-05-17 21:49:00,73.7,59.8,30.04,SSE,158,0.0,5.5,62,0.00,,,0.00,WUHU215HW,2013-05-18 02:49:00,
2013-05-17 21:52:00,73.5,59.7,30.04,SSE,158,0.0,5.5,62,0.00,,,0.00,WUHU215HW,2013-05-18 02:52:00,
2013-05-17 21:53:00,73.5,59.7,30.04,SSE,158,0.0,5.5,62,0.00,,,0.00,WUHU215HW,2013-05-18 02:53:00,
2013-05-17 21:54:00,73.4,59.7,30.04,SSE,158,0.0,5.5,62,0.00,,,0.00,WUHU215HW,2013-05-18 02:54:00,
2013-05-17 21:55:00,73.4,59.7,30.04,SSE,158,0.0,5.5,62,0.00,,,0.00,WUHU215HW,2013-05-18 02:55:00,
2013-05-17 21:57:00,73.2,59.7,30.04,SSE,158,0.0,0.0,63,0.00,,,0.00,WUHU215HW,2013-05-18 02:57:00,
2013-05-17 21:59:00,73.2,59.7,30.04,SE,135,1.1,1.1,63,0.00,,,0.00,WUHU215HW,2013-05-18 02:59:00,
2013-05-17 22:01:00,73.2,59.7,30.04,SE,135,1.1,1.1,63,0.00,,,0.00,WUHU215HW,2013-05-18 03:01:00,
2013-05-17 22:02:00,73.2,59.7,30.04,SE,135,1.1,1.1,63,0.00,,,0.00,WUHU215HW,2013-05-18 03:02:00,
2013-05-17 22:04:00,73.2,59.8,30.04,SE,135,0.0,1.1,63,0.00,,,0.00,WUHU215HW,2013-05-18 03:04:00,
2013-05-17 22:05:00,73.0,59.6,30.04,South,180,0.0,1.1,63,0.00,,,0.00,WUHU215HW,2013-05-18 03:05:00,
2013-05-17 22:09:00,72.6,59.3,30.04,SE,135,1.3,1.3,63,0.00,,,0.00,WUHU215HW,2013-05-18 03:09:00,
2013-05-17 22:10:00,72.6,59.3,30.04,SE,135,1.3,1.3,63,0.00,,,0.00,WUHU215HW,2013-05-18 03:10:00,
2013-05-17 22:13:00,72.6,59.7,30.04,SE,135,0.0,1.3,64,0.00,,,0.00,WUHU215HW,2013-05-18 03:13:00,
2013-05-17 22:14:00,72.6,59.7,30.04,SE,135,0.0,1.3,64,0.00,,,0.00,WUHU215HW,2013-05-18 03:14:00,
2013-05-17 22:15:00,72.6,59.7,30.04,SE,135,0.0,1.3,64,0.00,,,0.00,WUHU215HW,2013-05-18 03:15:00,
2013-05-17 22:17:00,72.6,59.7,30.04,SSE,158,3.5,3.5,64,0.00,,,0.00,WUHU215HW,2013-05-18 03:17:00,
2013-05-17 22:19:00,72.5,59.5,30.04,SSE,158,3.5,3.5,64,0.00,,,0.00,WUHU215HW,2013-05-18 03:19:00,
2013-05-17 22:20:00,72.5,59.5,30.04,SSE,158,0.0,3.5,64,0.00,,,0.00,WUHU215HW,2013-05-18 03:20:00,
2013-05-17 22:22:00,72.3,59.4,30.04,SSE,158,0.0,3.5,64,0.00,,,0.00,WUHU215HW,2013-05-18 03:22:00,
2013-05-17 22:25:00,72.3,59.8,30.04,SSE,158,0.0,3.5,65,0.00,,,0.00,WUHU215HW,2013-05-18 03:25:00,
2013-05-17 22:26:00,72.1,59.6,30.04,SSE,158,0.0,3.5,65,0.00,,,0.00,WUHU215HW,2013-05-18 03:26:00,
2013-05-17 22:28:00,72.1,59.6,30.04,SSE,158,2.2,2.2,65,0.00,,,0.00,WUHU215HW,2013-05-18 03:28:00,
2013-05-17 22:32:00,71.9,59.5,30.04,SSE,158,1.1,2.2,65,0.00,,,0.00,WUHU215HW,2013-05-18 03:32:00,
2013-05-17 22:33:00,71.9,59.5,30.04,SSE,158,0.0,2.2,65,0.00,,,0.00,WUHU215HW,2013-05-18 03:33:00,
2013-05-17 22:35:00,71.9,59.7,30.04,SSE,158,0.0,2.2,66,0.00,,,0.00,WUHU215HW,2013-05-18 03:35:00,
2013-05-17 22:36:00,71.7,59.7,30.04,SSE,158,1.5,2.2,66,0.00,,,0.00,WUHU215HW,2013-05-18 03:36:00,
2013-05-17 22:39:00,71.7,59.7,30.04,NNE,23,0.4,1.5,66,0.00,,,0.00,WUHU215HW,2013-05-18 03:39:00,
2013-05-17 22:40:00,71.7,59.7,30.04,NNE,23,0.4,1.5,66,0.00,,,0.00,WUHU215HW,2013-05-18 03:40:00,
2013-05-17 22:41:00,71.7,59.7,30.04,SE,135,0.0,1.5,66,0.00,,,0.00,WUHU215HW,2013-05-18 03:41:00,
2013-05-17 22:43:00,71.6,59.6,30.04,SE,135,0.0,1.5,66,0.00,,,0.00,WUHU215HW,2013-05-18 03:43:00,
2013-05-17 22:46:00,71.4,59.8,30.04,SSE,158,2.9,2.9,67,0.00,,,0.00,WUHU215HW,2013-05-18 03:46:00,
2013-05-17 22:47:00,71.4,59.8,30.04,SSE,158,2.9,2.9,67,0.00,,,0.00,WUHU215HW,2013-05-18 03:47:00,
2013-05-17 22:48:00,71.4,59.8,30.04,SSW,203,0.0,2.9,67,0.00,,,0.00,WUHU215HW,2013-05-18 03:48:00,
2013-05-17 22:51:00,71.4,59.8,30.04,SSE,158,0.0,2.9,67,0.00,,,0.00,WUHU215HW,2013-05-18 03:51:00,
2013-05-17 22:52:00,71.2,59.6,30.04,SE,135,0.0,2.9,67,0.00,,,0.00,WUHU215HW,2013-05-18 03:52:00,
2013-05-17 22:53:00,71.2,59.6,30.04,SE,135,0.0,2.9,67,0.00,,,0.00,WUHU215HW,2013-05-18 03:53:00,
2013-05-17 22:54:00,71.2,59.6,30.04,SE,135,0.4,2.9,67,0.00,,,0.00,WUHU215HW,2013-05-18 03:54:00,
2013-05-17 22:56:00,71.2,59.6,30.04,SE,135,0.4,0.4,67,0.00,,,0.00,WUHU215HW,2013-05-18 03:56:00,
2013-05-17 22:58:00,71.2,59.6,30.04,SE,135,0.0,0.4,67,0.00,,,0.00,WUHU215HW,2013-05-18 03:58:00,
2013-05-17 23:00:00,71.2,59.6,30.04,SE,135,0.0,0.4,67,0.00,,,0.00,WUHU215HW,2013-05-18 04:00:00,
2013-05-17 23:01:00,70.8,59.3,30.04,SSE,158,1.3,1.3,67,0.00,,,0.00,WUHU215HW,2013-05-18 04:01:00,
2013-05-17 23:02:00,70.8,59.3,30.04,SSE,158,1.3,1.3,67,0.00,,,0.00,WUHU215HW,2013-05-18 04:02:00,
2013-05-17 23:03:00,70.8,59.3,30.04,SSE,158,1.3,1.3,67,0.00,,,0.00,WUHU215HW,2013-05-18 04:03:00,
2013-05-17 23:04:00,70.8,59.3,30.04,SSE,158,1.3,1.3,67,0.00,,,0.00,WUHU215HW,2013-05-18 04:04:00,
2013-05-17 23:06:00,70.8,59.7,30.04,SSE,158,0.0,1.3,68,0.00,,,0.00,WUHU215HW,2013-05-18 04:06:00,
2013-05-17 23:08:00,70.7,59.7,30.04,SSE,158,0.0,1.3,68,0.00,,,0.00,WUHU215HW,2013-05-18 04:08:00,
2013-05-17 23:11:00,70.7,59.5,30.04,SSE,158,1.5,1.5,68,0.00,,,0.00,WUHU215HW,2013-05-18 04:11:00,
2013-05-17 23:12:00,70.7,59.5,30.04,SSE,158,1.5,1.5,68,0.00,,,0.00,WUHU215HW,2013-05-18 04:12:00,
2013-05-17 23:13:00,70.7,59.5,30.04,SSE,158,1.5,1.5,68,0.00,,,0.00,WUHU215HW,2013-05-18 04:13:00,
2013-05-17 23:16:00,70.5,59.8,30.04,South,180,0.0,1.5,69,0.00,,,0.00,WUHU215HW,2013-05-18 04:16:00,
2013-05-17 23:17:00,70.5,59.8,30.04,South,180,0.0,1.5,69,0.00,,,0.00,WUHU215HW,2013-05-18 04:17:00,
2013-05-17 23:18:00,70.5,59.8,30.04,SW,225,0.0,1.5,69,0.00,,,0.00,WUHU215HW,2013-05-18 04:18:00,
2013-05-17 23:22:00,70.3,59.6,30.04,South,180,0.0,1.5,69,0.00,,,0.00,WUHU215HW,2013-05-18 04:22:00,
2013-05-17 23:23:00,70.3,59.6,30.04,South,180,0.0,0.0,69,0.00,,,0.00,WUHU215HW,2013-05-18 04:23:00,
2013-05-17 23:24:00,70.3,59.6,30.04,South,180,0.0,0.0,69,0.00,,,0.00,WUHU215HW,2013-05-18 04:24:00,
2013-05-17 23:28:00,70.3,59.6,30.04,SE,135,0.0,0.0,69,0.00,,,0.00,WUHU215HW,2013-05-18 04:28:00,
2013-05-17 23:29:00,70.3,59.6,30.04,SE,135,4.0,4.0,69,0.00,,,0.00,WUHU215HW,2013-05-18 04:29:00,
2013-05-17 23:31:00,70.3,59.6,30.04,SE,135,4.0,4.0,70,0.00,,,0.00,WUHU215HW,2013-05-18 04:31:00,
2013-05-17 23:32:00,70.3,59.6,30.04,SE,135,4.0,4.0,70,0.00,,,0.00,WUHU215HW,2013-05-18 04:32:00,
2013-05-17 23:33:00,70.3,59.6,30.04,SSE,158,0.6,4.0,70,0.00,,,0.00,WUHU215HW,2013-05-18 04:33:00,
2013-05-17 23:36:00,70.3,59.6,30.04,SE,135,3.1,4.0,70,0.00,,,0.00,WUHU215HW,2013-05-18 04:36:00,
2013-05-17 23:37:00,70.3,60.0,30.04,SE,135,3.1,4.0,70,0.00,,,0.00,WUHU215HW,2013-05-18 04:37:00,
2013-05-17 23:38:00,70.3,60.0,30.04,SE,135,3.1,4.0,70,0.00,,,0.00,WUHU215HW,2013-05-18 04:38:00,
2013-05-17 23:39:00,70.1,59.9,30.04,SE,133,2.1,4.0,70,0.00,,,0.00,WUHU215HW,2013-05-18 04:39:00,
2013-05-17 23:40:00,70.1,59.9,30.04,SE,129,1.1,4.0,70,0.00,,,0.00,WUHU215HW,2013-05-18 04:40:00,
2013-05-17 23:41:00,70.1,59.9,30.04,ENE,68,0.2,3.1,70,0.00,,,0.00,WUHU215HW,2013-05-18 04:41:00,
2013-05-17 23:44:00,70.1,59.9,30.04,SSE,158,0.0,3.1,70,0.00,,,0.00,WUHU215HW,2013-05-18 04:44:00,
2013-05-17 23:48:00,69.9,60.0,30.04,NNE,23,0.0,3.1,71,0.00,,,0.00,WUHU215HW,2013-05-18 04:48:00,
2013-05-17 23:49:00,69.9,60.0,30.04,NNE,23,0.0,0.2,71,0.00,,,0.00,WUHU215HW,2013-05-18 04:49:00,
2013-05-17 23:51:00,69.9,60.0,30.04,SSE,158,3.8,3.8,71,0.00,,,0.00,WUHU215HW,2013-05-18 04:51:00,
2013-05-17 23:52:00,69.9,60.0,30.04,SSE,158,3.8,3.8,71,0.00,,,0.00,WUHU215HW,2013-05-18 04:52:00,
2013-05-17 23:54:00,69.8,59.9,30.04,SE,135,0.0,3.8,71,0.00,,,0.00,WUHU215HW,2013-05-18 04:54:00,
2013-05-17 23:55:00,69.8,59.9,30.04,SE,135,0.0,3.8,71,0.00,,,0.00,WUHU215HW,2013-05-18 04:55:00,
2013-05-17 23:57:00,69.6,59.7,30.04,South,180,0.0,3.8,71,0.00,,,0.00,WUHU215HW,2013-05-18 04:57:00,
2013-05-17 23:58:00,69.6,59.7,30.04,SSE,158,0.0,3.8,71,0.00,,,0.00,WUHU215HW,2013-05-18 04:58:00,
2013-05-17 23:59:00,69.6,59.7,30.04,SSE,158,0.0,3.8,71,0.00,,,0.00,WUHU215HW,2013-05-18 04:59:00,